DMSP 5D-2 F13 DEB, 40404

Orbit data source: Space-Track

DMSP 5D-2 F13 DEB, 40404 is space debris in SSO originally from a launch on Fri, 24 Mar 1995 UTC launched from the Air Force Western Test Range (AFWTR). Debris objects in space refer to the collection of defunct objects orbiting the Earth. Examples of debris include non-operational satellites, rocket bodies, and fragments generated from explosions, collisions, or faulty payload assembly.

Loading next visibility...
Identifier
40404, 1995-015R
Orbit
SSO
Country
Flag of USUS
Related business
Manufacturer
Unknown
Mission
Spacecraft
Bus & Motor
Unknown
Mass
Unknown
Launch date (UTC)
1995-03-24 (31 years ago)
Launch vehicle
Unknown
Launch site
Air Force Western Test Range (AFWTR)
Object type
Payload
Rocket body
Debris
Shape & HBR
Unknown shape, 0.1 m
Radar Cross Section
Small (<0.1 m²)

Expand to show TLE details & history
Last TLE update: 13 hours ago

TLE from 13 hours ago
0 DMSP 5D-2 F13 DEB
1 40404U 95015R   25289.00741131  .00000748  00000-0  38191-3 0  9999
2 40404  98.8015 302.0831 0006818 118.0435 242.1430 14.18641849550054
Epoch: 2025-10-16T00:10Z
TLE epoch observation values (Epoch: 2025-10-16T00:10:40.337Z)
Latitude
-0.00007°
Longitude
-85.35828°
Altitude
835.159 km
Speed
7.434 km/s
True Right ascension
20h 08m 19s
True Declination
0° 00' 00"
Sunlit
Object was in daylight at epoch
Visualization orbit readout
Latitude
Unknown
Longitude
Unknown
Altitude
Unknown
Speed
Unknown
Apparent Right ascension
Unknown
Apparent Declination
Unknown
Sunlit
N/A
Visualization observer readout
Local Sidereal Time
07:49:02
Azimuth
Unknown
Elevation
Unknown
Doppler factor
Unknown
Orbital elements
Apogee altitude
832.027 km
Perigee altitude
822.202 km
Semi-major axis
7,205.251 km
Eccentricity
0.00068
Inclination
98.8015°
RAAN
302.0831°
Arg. of periapsis
118.0435°
True anomaly
242.07395°
Mean anomaly
242.143°
Eccentric anomaly
242.10847°
Mean motion
3.5487 °/min
Orbital period
101.45 mins
BSTAR
0.00038191

Documentation

Showing up to 5 results
|